This demonstration page uses our WeatherBlox Daily Observations layout. Learn more.

Left ArrowRight Arrow

39.08367, -84.50855

Hourly Observations for January 26, 2021

Temp ( °F °C ) Dew Point ( °F °C ) Humidity (%) Winds ( mph kmh ) Pressure ( in mb ) Visibility ( mi km ) Precip ( " mm )
12:53 am 00:53 Cloudy 35 1.7 33 0.6 93 93 NNE 5 7 29.69 1005 10 16 0.01 0.25
1:53 am 01:53 Cloudy with Mist and Fog 35 1.7 34 1.1 96 96 N 5 7 29.67 1005 6 10 0.00 0.00
2:53 am 02:53 Cloudy with Mist and Fog 35 1.7 34 1.1 96 96 NE 3 6 29.67 1005 3 5 0.01 0.25
3:05 am 03:05 Cloudy with Mist and Fog 35 1.7 34 1.1 96 96 E 3 6 29.67 1005 3 4 N/A
3:36 am 03:36 Cloudy with Mist and Fog 35 1.7 34 1.1 96 96 NNE 3 6 29.67 1005 3 5 N/A
3:48 am 03:48 Cloudy with Mist and Fog 36 2 34 1 93 93 NNE 5 7 29.66 1005 3 4 N/A
3:53 am 03:53 Cloudy with Mist and Fog 35 1.7 34 1.1 96 96 NNE 3 6 29.65 1004 3 4 N/A
4:10 am 04:10 Cloudy with Mist and Fog 35 1.7 34 1.1 96 96 N N/A 29.66 1005 3 5 N/A
4:42 am 04:42 Cloudy with Mist and Fog 36 2.2 35 1.7 97 97 N N/A 29.65 1004 3 4 N/A
4:53 am 04:53 Cloudy with Mist and Fog 35 1.7 35 1.7 100 100 N N/A 29.65 1004 2 2 N/A
5:09 am 05:09 Cloudy with Mist and Fog 36 2.2 34 1.1 93 93 N N/A 29.67 1005 3 4 N/A
5:27 am 05:27 Cloudy with Mist and Fog 36 2.2 35 1.7 97 97 W 5 7 29.67 1005 2 3 N/A
5:53 am 05:53 Cloudy with Mist and Fog 35 1.7 34 1.1 96 96 N N/A 29.67 1005 1 2 N/A
6:16 am 06:16 Cloudy with Mist and Fog 36 2.2 35 1.7 97 97 N N/A 29.70 1006 3 4 N/A
6:36 am 06:36 Cloudy with Mist and Fog 36 2.2 36 2.2 100 100 SSW 5 7 29.70 1006 3 5 N/A
6:53 am 06:53 Cloudy with Mist and Fog 37 2.8 36 2.2 96 96 SSW 5 7 29.69 1006 5 8 N/A
7:53 am 07:53 Cloudy 40 4.4 38 3.3 93 93 WSW 10 17 29.71 1006 10 16 N/A
8:53 am 08:53 Cloudy 42 5.6 39 3.9 89 89 SW 10 17 29.74 1007 10 16 N/A
9:53 am 09:53 Cloudy 44 6.7 39 3.9 83 83 SW 13 20 29.78 1009 10 16 N/A
10:53 am 10:53 Cloudy 46 7.8 40 4.4 79 79 SW 12 19 29.80 1009 10 16 N/A
11:53 am 11:53 Cloudy 47 8.3 40 4.4 77 77 SW 10 17 29.80 1009 10 16 N/A
12:53 pm 12:53 Cloudy with Light Rain 46 7.8 40 4.4 79 79 SW 12 19 29.81 1010 10 16 0.00 0.00
1:53 pm 13:53 Cloudy 46 7.8 40 4.4 79 79 WSW 13 20 29.83 1010 10 16 0.00 0.00
2:31 pm 14:31 Cloudy with Light Rain 46 7.8 40 4.4 79 79 WNW 12 19 29.84 1011 8 13 0.00 0.00
2:53 pm 14:53 Cloudy with Light Rain 46 7.8 41 5 83 83 W 14 22 29.84 1011 10 16 0.01 0.25
3:53 pm 15:53 Mostly Cloudy 46 7.8 39 3.9 77 77 WSW 15 24 29.87 1011 10 16 0.00 0.00
4:53 pm 16:53 Cloudy 45 7.2 37 2.8 74 74 W 12 19 29.90 1013 10 16 N/A
5:53 pm 17:53 Cloudy 44 6.7 35 1.7 71 71 WNW 13 20 29.94 1014 10 16 N/A
6:49 pm 18:49 Cloudy 43 6 34 1 71 71 WNW 10 17 29.99 1015 10 16 N/A
6:53 pm 18:53 Cloudy 42 5.6 33 0.6 71 71 WNW 13 20 29.98 1015 10 16 N/A
7:25 pm 19:25 Cloudy 41 5 33 0.6 73 73 NW 9 15 30.01 1016 10 16 N/A
7:53 pm 19:53 Cloudy 39 3.9 30 -1.1 70 70 NW 9 15 30.01 1016 10 16 N/A
8:53 pm 20:53 Cloudy 38 3.3 28 -2.2 68 68 VRB 5 7 30.04 1017 10 16 N/A
9:15 pm 21:15 Cloudy 38 3.3 28 -2.2 68 68 VRB 6 9 30.06 1018 10 16 N/A
9:34 pm 21:34 Cloudy 37 2.8 28 -2.2 70 70 NW 10 17 30.07 1018 10 16 N/A
9:53 pm 21:53 Cloudy 37 2.8 28 -2.2 70 70 W 14 22 30.06 1018 10 16 N/A
10:53 pm 22:53 Cloudy 36 2.2 27 -2.8 70 70 WNW 10 17 30.09 1019 10 16 N/A
11:53 pm 23:53 Cloudy 36 2.2 27 -2.8 70 70 NW 5 7 30.11 1020 10 16 N/A

Powered by AerisWeather